Time,TemperatureF,DewpointF,PressureIn,WindDirection,WindDirectionDegrees,WindSpeedMPH,WindSpeedGustMPH,Humidity,HourlyPrecipIn,Conditions,Clouds,dailyrainin,SolarRadiationWatts/m^2,SoftwareType,DateUTC
2013-01-25 00:01:00,23.0,21.0,-100.00,North,6,2.0,4.0,93,0.00,,,0.16,0.000000,,2013-01-25 07:01:00,
2013-01-25 00:11:00,23.0,21.0,-100.00,North,6,2.0,4.0,93,0.00,,,0.16,0.000000,,2013-01-25 07:11:00,
2013-01-25 00:32:00,25.0,23.0,-100.00,NNW,343,2.0,4.0,92,0.00,,,0.16,0.000000,,2013-01-25 07:32:00,
2013-01-25 00:42:00,25.0,23.0,-100.00,NNW,343,2.0,4.0,92,0.00,,,0.16,0.000000,,2013-01-25 07:42:00,
2013-01-25 00:52:00,25.0,23.0,-100.00,NNW,343,2.0,4.0,92,0.00,,,0.16,0.000000,,2013-01-25 07:52:00,
2013-01-25 01:01:00,25.0,23.0,-100.00,NNW,343,2.0,4.0,92,0.00,,,0.16,0.000000,,2013-01-25 08:01:00,
2013-01-25 01:11:00,25.0,23.0,-100.00,NNW,343,2.0,4.0,92,0.00,,,0.16,0.000000,,2013-01-25 08:11:00,
2013-01-25 01:42:00,26.0,24.0,-100.00,North,7,2.0,4.0,91,0.00,,,0.16,0.000000,,2013-01-25 08:42:00,
2013-01-25 01:52:00,26.0,24.0,-100.00,North,7,2.0,4.0,91,0.00,,,0.16,0.000000,,2013-01-25 08:52:00,
2013-01-25 02:01:00,26.0,24.0,-100.00,North,7,2.0,4.0,91,0.00,,,0.16,0.000000,,2013-01-25 09:01:00,
2013-01-25 02:11:00,26.0,24.0,-100.00,North,7,2.0,4.0,91,0.00,,,0.16,0.000000,,2013-01-25 09:11:00,
2013-01-25 02:42:00,27.0,25.0,-100.00,North,354,1.0,4.0,91,0.00,,,0.16,0.000000,,2013-01-25 09:42:00,
2013-01-25 02:52:00,27.0,25.0,-100.00,North,354,1.0,4.0,91,0.00,,,0.16,0.000000,,2013-01-25 09:52:00,
2013-01-25 03:01:00,27.0,25.0,-100.00,North,354,1.0,4.0,91,0.00,,,0.16,0.000000,,2013-01-25 10:01:00,
2013-01-25 03:11:00,27.0,25.0,-100.00,North,354,1.0,4.0,91,0.00,,,0.16,0.000000,,2013-01-25 10:11:00,
2013-01-25 03:42:00,28.0,26.0,-100.00,NNW,332,2.0,5.0,91,0.00,,,0.16,0.000000,,2013-01-25 10:42:00,
2013-01-25 03:52:00,28.0,26.0,-100.00,NNW,332,2.0,5.0,91,0.00,,,0.16,0.000000,,2013-01-25 10:52:00,
2013-01-25 04:02:00,28.0,26.0,-100.00,NNW,332,2.0,5.0,91,0.00,,,0.16,0.000000,,2013-01-25 11:02:00,
2013-01-25 04:11:00,28.0,26.0,-100.00,NNW,332,2.0,5.0,91,0.00,,,0.16,0.000000,,2013-01-25 11:11:00,
2013-01-25 04:42:00,28.0,26.0,-100.00,NNW,346,2.0,4.0,92,0.00,,,0.16,0.000000,,2013-01-25 11:42:00,
2013-01-25 04:52:00,28.0,26.0,-100.00,NNW,346,2.0,4.0,92,0.00,,,0.16,0.000000,,2013-01-25 11:52:00,
2013-01-25 05:02:00,28.0,26.0,-100.00,NNW,346,2.0,4.0,92,0.00,,,0.16,0.000000,,2013-01-25 12:02:00,
2013-01-25 05:11:00,28.0,26.0,-100.00,NNW,346,2.0,4.0,92,0.00,,,0.16,0.000000,,2013-01-25 12:11:00,
2013-01-25 05:33:00,29.0,27.0,-100.00,NNE,29,1.0,4.0,92,0.00,,,-99.99,0.000000,,2013-01-25 12:33:00,
2013-01-25 05:42:00,29.0,27.0,-100.00,NNE,29,1.0,4.0,92,0.00,,,-99.99,0.000000,,2013-01-25 12:42:00,
2013-01-25 05:53:00,29.0,27.0,-100.00,NNE,29,1.0,4.0,92,0.00,,,-99.99,0.000000,,2013-01-25 12:53:00,
2013-01-25 06:02:00,29.0,27.0,-100.00,NNE,29,1.0,4.0,92,0.00,,,-99.99,0.000000,,2013-01-25 13:02:00,
2013-01-25 06:11:00,29.0,27.0,-100.00,NNE,29,1.0,4.0,92,0.00,,,-99.99,0.000000,,2013-01-25 13:11:00,
2013-01-25 06:43:00,29.0,27.0,-100.00,NNE,31,1.0,4.0,91,0.00,,,0.13,0.000000,,2013-01-25 13:43:00,
2013-01-25 06:52:00,29.0,27.0,-100.00,NNE,31,1.0,4.0,91,0.00,,,0.13,0.000000,,2013-01-25 13:52:00,
2013-01-25 07:02:00,29.0,27.0,-100.00,NNE,31,1.0,4.0,91,0.00,,,0.13,0.000000,,2013-01-25 14:02:00,
2013-01-25 07:12:00,29.0,27.0,-100.00,NNE,31,1.0,4.0,91,0.00,,,0.13,0.000000,,2013-01-25 14:12:00,
2013-01-25 07:42:00,30.0,28.0,-100.00,North,7,2.0,3.0,93,0.00,,,0.13,0.000000,,2013-01-25 14:42:00,
2013-01-25 07:53:00,30.0,28.0,-100.00,North,7,2.0,3.0,93,0.00,,,0.13,0.000000,,2013-01-25 14:53:00,
2013-01-25 08:02:00,30.0,28.0,-100.00,North,7,2.0,3.0,93,0.00,,,0.13,0.000000,,2013-01-25 15:02:00,
2013-01-25 08:11:00,30.0,28.0,-100.00,North,7,2.0,3.0,93,0.00,,,0.13,0.000000,,2013-01-25 15:11:00,
2013-01-25 08:43:00,30.0,28.0,-100.00,North,349,2.0,4.0,93,0.00,,,0.12,0.000000,,2013-01-25 15:43:00,
2013-01-25 08:53:00,30.0,28.0,-100.00,North,349,2.0,4.0,93,0.00,,,0.12,0.000000,,2013-01-25 15:53:00,
2013-01-25 09:02:00,30.0,28.0,-100.00,North,349,2.0,4.0,93,0.00,,,0.12,0.000000,,2013-01-25 16:02:00,
2013-01-25 09:11:00,30.0,28.0,-100.00,North,349,2.0,4.0,93,0.00,,,0.12,0.000000,,2013-01-25 16:11:00,
2013-01-25 09:43:00,31.0,29.0,-100.00,North,10,2.0,3.0,92,0.00,,,0.12,9.000000,,2013-01-25 16:43:00,
2013-01-25 09:53:00,31.0,29.0,-100.00,North,10,2.0,3.0,92,0.00,,,0.12,9.000000,,2013-01-25 16:53:00,
2013-01-25 10:02:00,31.0,29.0,-100.00,North,10,2.0,3.0,92,0.00,,,0.12,9.000000,,2013-01-25 17:02:00,
2013-01-25 10:11:00,31.0,29.0,-100.00,North,10,2.0,3.0,92,0.00,,,0.12,9.000000,,2013-01-25 17:11:00,
2013-01-25 10:43:00,34.0,31.0,-100.00,NNE,23,2.0,5.0,90,0.00,,,0.12,27.000000,,2013-01-25 17:43:00,
2013-01-25 10:53:00,34.0,31.0,-100.00,NNE,23,2.0,5.0,90,0.00,,,0.12,27.000000,,2013-01-25 17:53:00,
2013-01-25 11:02:00,34.0,31.0,-100.00,NNE,23,2.0,5.0,90,0.00,,,0.12,27.000000,,2013-01-25 18:02:00,
2013-01-25 11:11:00,34.0,31.0,-100.00,NNE,23,2.0,5.0,90,0.00,,,0.12,27.000000,,2013-01-25 18:11:00,
2013-01-25 11:43:00,38.0,33.0,-100.00,South,172,3.0,6.0,81,0.00,,,0.06,44.000000,,2013-01-25 18:43:00,
2013-01-25 11:52:00,38.0,33.0,-100.00,South,172,3.0,6.0,81,0.00,,,0.06,44.000000,,2013-01-25 18:52:00,
2013-01-25 12:02:00,38.0,33.0,-100.00,South,172,3.0,6.0,81,0.00,,,0.06,44.000000,,2013-01-25 19:02:00,
2013-01-25 12:12:00,38.0,33.0,-100.00,South,172,3.0,6.0,81,0.00,,,0.06,44.000000,,2013-01-25 19:12:00,
2013-01-25 12:42:00,40.0,31.0,-100.00,SSE,166,3.0,9.0,70,0.00,,,0.00,98.000000,,2013-01-25 19:42:00,
2013-01-25 12:53:00,40.0,31.0,-100.00,SSE,166,3.0,9.0,70,0.00,,,0.00,98.000000,,2013-01-25 19:53:00,
2013-01-25 13:02:00,40.0,31.0,-100.00,SSE,166,3.0,9.0,70,0.00,,,0.00,98.000000,,2013-01-25 20:02:00,
2013-01-25 13:11:00,40.0,31.0,-100.00,SSE,166,3.0,9.0,70,0.00,,,0.00,98.000000,,2013-01-25 20:11:00,
2013-01-25 13:43:00,40.0,31.0,-100.00,SE,141,4.0,9.0,69,0.00,,,-99.99,118.000000,,2013-01-25 20:43:00,
2013-01-25 13:52:00,40.0,31.0,-100.00,SE,141,4.0,9.0,69,0.00,,,-99.99,118.000000,,2013-01-25 20:52:00,
2013-01-25 14:02:00,40.0,31.0,-100.00,SE,141,4.0,9.0,69,0.00,,,-99.99,118.000000,,2013-01-25 21:02:00,
2013-01-25 14:11:00,40.0,31.0,-100.00,SE,141,4.0,9.0,69,0.00,,,-99.99,118.000000,,2013-01-25 21:11:00,
2013-01-25 14:42:00,41.0,32.0,-100.00,SE,125,3.0,7.0,69,0.00,,,0.00,145.000000,,2013-01-25 21:42:00,
2013-01-25 14:52:00,41.0,32.0,-100.00,SE,125,3.0,7.0,69,0.00,,,0.00,145.000000,,2013-01-25 21:52:00,
2013-01-25 15:02:00,41.0,32.0,-100.00,SE,125,3.0,7.0,69,0.00,,,0.00,145.000000,,2013-01-25 22:02:00,
2013-01-25 15:11:00,41.0,32.0,-100.00,SE,125,3.0,7.0,69,0.00,,,0.00,145.000000,,2013-01-25 22:11:00,
2013-01-25 15:42:00,43.0,32.0,-100.00,SE,146,3.0,7.0,66,0.00,,,0.00,156.000000,,2013-01-25 22:42:00,
2013-01-25 15:52:00,43.0,32.0,-100.00,SE,146,3.0,7.0,66,0.00,,,0.00,156.000000,,2013-01-25 22:52:00,
2013-01-25 16:02:00,43.0,32.0,-100.00,SE,146,3.0,7.0,66,0.00,,,0.00,156.000000,,2013-01-25 23:02:00,
2013-01-25 16:11:00,43.0,32.0,-100.00,SE,146,3.0,7.0,66,0.00,,,0.00,156.000000,,2013-01-25 23:11:00,
2013-01-25 16:42:00,40.0,31.0,-100.00,South,176,4.0,8.0,69,0.00,,,0.00,98.000000,,2013-01-25 23:42:00,
2013-01-25 16:52:00,40.0,31.0,-100.00,South,176,4.0,8.0,69,0.00,,,0.00,98.000000,,2013-01-25 23:52:00,
2013-01-25 17:01:00,40.0,31.0,-100.00,South,176,4.0,8.0,69,0.00,,,0.00,98.000000,,2013-01-26 00:01:00,
2013-01-25 17:11:00,40.0,31.0,-100.00,South,176,4.0,8.0,69,0.00,,,0.00,98.000000,,2013-01-26 00:11:00,
2013-01-25 17:42:00,37.0,32.0,-100.00,SE,139,2.0,6.0,83,0.00,,,0.00,18.000000,,2013-01-26 00:42:00,
2013-01-25 17:53:00,37.0,32.0,-100.00,SE,139,2.0,6.0,83,0.00,,,0.00,18.000000,,2013-01-26 00:53:00,
2013-01-25 18:01:00,37.0,32.0,-100.00,SE,139,2.0,6.0,83,0.00,,,0.00,18.000000,,2013-01-26 01:01:00,
2013-01-25 18:11:00,37.0,32.0,-100.00,SE,139,2.0,6.0,83,0.00,,,0.00,18.000000,,2013-01-26 01:11:00,
2013-01-25 18:32:00,34.0,33.0,-100.00,NNW,337,2.0,3.0,95,0.01,,,0.01,1.000000,,2013-01-26 01:32:00,
2013-01-25 18:42:00,34.0,33.0,-100.00,NNW,337,2.0,3.0,95,0.01,,,0.01,1.000000,,2013-01-26 01:42:00,
2013-01-25 18:52:00,34.0,33.0,-100.00,NNW,337,2.0,3.0,95,0.01,,,0.01,1.000000,,2013-01-26 01:52:00,
2013-01-25 19:01:00,34.0,33.0,-100.00,NNW,337,2.0,3.0,95,0.01,,,0.01,1.000000,,2013-01-26 02:01:00,
2013-01-25 19:11:00,34.0,33.0,-100.00,NNW,337,2.0,3.0,95,0.01,,,0.01,1.000000,,2013-01-26 02:11:00,
2013-01-25 19:42:00,34.0,34.0,-100.00,North,0,2.0,4.0,98,0.00,,,0.01,0.000000,,2013-01-26 02:42:00,
2013-01-25 19:52:00,34.0,34.0,-100.00,North,0,2.0,4.0,98,0.00,,,0.01,0.000000,,2013-01-26 02:52:00,
2013-01-25 20:01:00,34.0,34.0,-100.00,North,0,2.0,4.0,98,0.00,,,0.01,0.000000,,2013-01-26 03:01:00,
2013-01-25 20:11:00,34.0,34.0,-100.00,North,0,2.0,4.0,98,0.00,,,0.01,0.000000,,2013-01-26 03:11:00,
2013-01-25 20:32:00,34.0,34.0,-100.00,North,354,2.0,4.0,98,0.00,,,0.01,0.000000,,2013-01-26 03:32:00,
2013-01-25 20:43:00,34.0,34.0,-100.00,North,354,2.0,4.0,98,0.00,,,0.01,0.000000,,2013-01-26 03:43:00,
2013-01-25 20:52:00,34.0,34.0,-100.00,North,354,2.0,4.0,98,0.00,,,0.01,0.000000,,2013-01-26 03:52:00,
2013-01-25 21:01:00,34.0,34.0,-100.00,North,354,2.0,4.0,98,0.00,,,0.01,0.000000,,2013-01-26 04:01:00,
2013-01-25 21:12:00,34.0,34.0,-100.00,North,354,2.0,4.0,98,0.00,,,0.01,0.000000,,2013-01-26 04:12:00,
2013-01-25 21:32:00,33.0,32.0,-100.00,North,352,1.0,4.0,98,0.00,,,0.01,0.000000,,2013-01-26 04:32:00,
2013-01-25 21:42:00,33.0,32.0,-100.00,North,352,1.0,4.0,98,0.00,,,0.01,0.000000,,2013-01-26 04:42:00,
2013-01-25 21:52:00,33.0,32.0,-100.00,North,352,1.0,4.0,98,0.00,,,0.01,0.000000,,2013-01-26 04:52:00,
2013-01-25 22:03:00,33.0,32.0,-100.00,North,352,1.0,4.0,98,0.00,,,0.01,0.000000,,2013-01-26 05:03:00,
2013-01-25 22:12:00,33.0,32.0,-100.00,North,352,1.0,4.0,98,0.00,,,0.01,0.000000,,2013-01-26 05:12:00,
2013-01-25 22:33:00,33.0,33.0,-100.00,East,96,1.0,4.0,99,0.00,,,0.01,0.000000,,2013-01-26 05:33:00,
2013-01-25 22:42:00,33.0,33.0,-100.00,East,96,1.0,4.0,99,0.00,,,0.01,0.000000,,2013-01-26 05:42:00,
2013-01-25 22:52:00,33.0,33.0,-100.00,East,96,1.0,4.0,99,0.00,,,0.01,0.000000,,2013-01-26 05:52:00,
2013-01-25 23:02:00,33.0,33.0,-100.00,East,96,1.0,4.0,99,0.00,,,0.01,0.000000,,2013-01-26 06:02:00,
2013-01-25 23:11:00,33.0,33.0,-100.00,East,96,1.0,4.0,99,0.00,,,0.01,0.000000,,2013-01-26 06:11:00,
2013-01-25 23:32:00,33.0,32.0,-100.00,NNW,343,1.0,2.0,98,0.01,,,0.02,0.000000,,2013-01-26 06:32:00,
2013-01-25 23:42:00,33.0,32.0,-100.00,NNW,343,1.0,2.0,98,0.01,,,0.02,0.000000,,2013-01-26 06:42:00,
2013-01-25 23:52:00,33.0,32.0,-100.00,NNW,343,1.0,2.0,98,0.01,,,0.02,0.000000,,2013-01-26 06:52:00,